Temperature
16 16 16 16 16 16 16 15 15 15 15 15 16 16 16 15 15 15 15 15 15 15 15 15 15 15 15 15 15 15 15 15 15 15 15 15 15 14 14 14 15 15 15
16 16 16 16 16 16 15 15 15 15 15 15 15 15 15 15 15 15 15 15 15 15 15 15 15 15 15 15 15 15 15 15 15 15 14 14 14 14 14 14 14 14 14
16 16 16 16 16 15 15 15 15 15 15 15 15 15 15 15 15 15 15 15 15 15 15 15 15 15 15 15 15 14 14 14 14 14 14 14 14 14 14 14 14 14 14
16 16 16 16 16 15 15 15 15 15 15 15 15 15 15 15 15 15 15 15 15 15 15 15 15 15 15 15 15 14 14 14 14 13 13 13 14 14 14 14 14 14 14
15 16 15 15 15 15 15 15 15 15 15 15 15 15 15 15 15 15 15 14 14 15 15 15 15 15 15 15 14 14 14 14 13 13 13 13 13 13 13 13 13 13 13
15 15 15 15 15 15 15 15 15 15 15 15 15 15 15 15 15 15 14 14 14 14 14 14 14 15 14 14 14 14 14 13 13 13 13 13 13 13 13 13 13 13 13
15 15 15 15 15 15 15 15 15 14 14 14 14 14 14 14 14 14 14 14 14 14 14 14 14 14 14 14 14 14 13 13 13 13 13 13 13 13 13 13 13 13 13
14 14 15 15 15 15 15 15 14 14 14 14 14 14 14 14 14 14 14 14 14 14 14 14 14 14 14 14 14 14 13 13 13 13 13 13 13 13 13 12 13 13 13
14 14 14 14 14 14 14 14 14 14 14 14 14 14 14 14 14 14 14 14 14 14 14 14 14 14 14 14 14 13 13 13 13 12 13 13 13 13 12 12 13 13 13
14 14 14 14 14 14 14 14 14 14 14 14 14 14 14 14 14 14 14 14 14 14 14 14 14 14 14 14 13 13 13 13 13 12 12 13 13 13 13 13 13 13 12
13 13 13 13 13 13 13 13 14 14 14 14 13 13 13 13 13 13 13 14 14 13 14 14 14 14 14 13 13 13 13 12 12 12 12 12 12 12 12 12 12 12 12
13 13 13 13 13 13 13 13 13 13 13 13 13 13 13 13 13 13 13 13 13 13 13 13 13 13 13 13 13 13 12 12 12 12 12 12 12 12 12 12 12 12 12
13 13 13 13 13 13 13 13 13 13 13 13 13 13 13 13 13 13 13 13 13 13 13 13 13 13 13 13 13 12 12 12 12 12 12 12 12 12 12 12 12 12 12
12 12 12 12 12 12 12 13 13 12 12 13 13 13 13 13 13 13 13 13 13 13 13 12 12 12 12 12 12 12 12 12 12 12 12 12 12 12 12 11 11 12 12
12 12 12 12 12 12 12 12 12 12 12 12 12 12 12 12 13 13 13 12 12 12 12 12 12 12 12 12 12 12 12 12 12 12 12 12 12 12 12 11 11 11 11
11 12 12 11 12 12 12 12 12 12 12 12 12 12 12 12 12 12 12 12 12 12 12 12 12 12 12 11 11 11 11 11 11 11 11 11 11 11 11 11 11 11 11
11 11 11 11 11 11 11 11 11 11 11 12 12 12 12 12 12 12 12 12 12 12 12 11 11 11 11 11 11 11 11 11 11 11 11 11 11 11 11 11 11 11 10
10 10 11 11 11 11 11 11 11 11 11 11 11 11 11 11 11 11 11 11 11 11 11 11 11 11 11 11 11 11 11 11 11 11 11 11 11 11 11 11 11 11 10
10 10 10 10 10 10 10 10 10 10 10 11 11 10 10 10 10 10 11 11 11 11 11 11 11 11 11 11 11 11 10 11 11 11 11 10 10 11 11 11 11 10 10
9 9 10 10 10 10 10 10 10 10 10 10 10 10 10 10 10 10 10 10 10 10 10 10 10 10 10 10 10 10 10 10 10 10 10 10 10 10 10 10 10 10 10
9 9 9 9 9 9 9 9 9 9 9 9 9 10 9 10 10 10 10 10 10 10 10 10 10 9 9 9 9 9 10 10 10 10 10 10 10 10 10 10 10 10 10
8 8 9 9 9 9 9 9 9 9 9 9 9 9 9 9 9 9 9 9 9 9 9 9 9 9 9 9 9 9 9 9 9 10 10 10 10 10 10 10 10 10 10
7 8 8 8 8 8 8 8 8 8 8 8 8 8 8 8 9 9 9 9 9 9 9 9 9 9 9 9 9 9 9 9 9 9 9 9 9 9 9 9 10 9 9
7 7 7 8 8 8 8 8 8 7 8 8 8 8 8 8 8 8 8 8 8 8 8 8 8 8 8 8 8 8 8 9 8 8 9 9 9 9 9 9 9 9 9
6 6 7 7 7 7 7 7 7 7 7 7 7 7 8 8 8 8 8 8 8 8 8 8 8 8 8 8 8 8 8 8 8 8 8 8 8 8 8 9 9 9 9
6 6 6 6 6 6 6 6 6 6 6 6 7 7 7 7 7 7 7 7 7 7 7 7 7 8 8 7 8 8 8 7 8 8 8 8 8 8 8 8 8 8 8
Wind_Speed
7 10 10 9 9 9 9 10 10 10 10 9 9 10 10 11 11 12 12 13 13 13 13 13 13 13 13 14 15 15 16 15 15 16 16 16 15 15 15 16 15 14 17
9 12 11 10 9 9 9 9 9 10 10 9 9 10 10 11 11 11 11 12 12 12 12 13 13 13 13 13 13 13 13 13 13 14 14 15 15 15 15 16 15 14 15
10 12 11 10 10 9 9 9 9 9 9 9 9 10 10 10 10 10 10 11 11 11 11 12 12 13 13 12 12 11 11 11 11 11 11 12 13 14 14 14 14 14 14
11 12 11 11 10 9 9 9 9 9 9 9 9 9 10 10 10 10 10 10 10 10 11 11 11 12 12 11 11 10 9 8 8 8 9 11 12 12 13 13 13 13 13
10 11 12 12 10 10 9 9 9 9 8 9 9 9 10 10 9 9 9 9 10 10 10 10 10 11 11 10 10 9 7 6 6 7 11 13 12 11 12 12 11 11 12
9 11 12 11 10 9 9 9 8 8 8 8 9 9 9 9 9 9 9 9 9 9 9 10 10 10 9 9 8 7 5 5 5 7 11 12 11 10 10 11 11 11 11
8 10 11 10 10 9 8 8 7 7 7 7 8 9 9 9 9 9 9 8 8 8 9 9 9 9 8 8 7 5 4 5 5 8 10 11 10 10 10 10 10 10 11
8 9 10 9 9 8 8 7 6 6 6 6 7 8 8 9 9 9 9 8 8 8 8 9 8 8 7 6 6 4 3 3 4 7 10 10 10 9 9 9 9 9 9
8 8 7 8 7 7 7 7 6 6 6 6 6 8 8 9 9 9 9 8 8 8 8 8 8 7 6 5 4 3 2 2 3 5 8 9 9 8 8 8 8 8 9
7 6 5 6 6 6 6 6 6 6 5 5 6 7 8 9 9 9 9 9 8 8 7 8 8 7 6 5 3 2 1 1 3 5 7 8 8 7 6 6 7 7 7
5 5 4 4 4 5 5 5 6 5 5 5 5 6 7 8 8 9 9 9 9 8 8 8 8 7 6 4 3 2 1 1 3 5 7 7 7 6 6 6 5 6 6
4 4 4 3 3 4 3 4 4 4 4 5 4 4 5 6 7 8 9 10 9 9 9 8 8 7 5 4 4 3 2 2 3 5 6 8 7 5 5 5 5 5 5
4 3 3 2 2 3 2 3 3 3 3 3 4 4 5 5 6 7 7 7 8 8 7 7 7 6 5 4 3 3 2 2 3 4 7 8 6 4 4 4 4 5 4
3 4 3 2 2 2 2 2 2 2 2 2 3 3 3 3 4 5 5 6 6 6 6 6 5 5 5 4 4 3 2 2 4 5 6 8 6 5 4 4 5 4 4
2 3 3 2 2 2 1 1 2 1 1 2 2 3 3 2 3 4 4 6 6 6 6 5 4 4 3 3 4 4 3 3 4 5 6 8 7 5 5 5 4 4 4
1 2 3 2 2 1 1 1 1 2 2 1 1 2 2 2 2 3 3 4 5 6 6 5 4 4 3 2 2 2 3 3 4 5 6 7 7 6 6 6 5 5 4
1 1 2 2 2 1 1 1 1 1 2 1 1 1 1 2 2 2 2 3 4 6 6 5 4 4 3 2 2 2 2 2 3 4 5 7 7 7 6 6 6 6 5
1 1 1 1 1 1 1 1 1 1 1 1 1 1 1 2 2 2 2 2 4 5 5 4 3 3 3 3 2 2 2 2 3 4 4 6 8 8 7 7 6 6 6
1 1 1 0 1 1 1 1 1 1 1 1 1 1 1 2 3 3 3 3 3 3 3 4 3 3 3 2 2 2 2 2 2 3 4 5 6 7 8 8 8 7 6
1 1 1 0 1 1 1 1 1 1 0 0 1 1 1 2 3 3 3 3 3 3 2 3 4 3 3 3 2 2 2 3 3 3 4 4 5 6 7 8 8 7 8
2 2 1 1 0 1 1 1 1 1 1 1 1 1 1 2 2 3 2 2 3 3 4 3 2 3 3 2 1 1 2 4 5 4 3 4 5 6 7 7 7 7 7
2 2 2 1 1 0 1 1 1 1 2 2 1 1 2 2 3 2 3 3 3 3 3 3 3 2 2 3 2 1 2 2 3 4 4 4 5 5 5 7 7 7 7
2 2 2 2 1 0 0 1 0 0 0 0 1 1 2 2 2 2 3 3 3 3 4 4 4 4 3 3 3 3 3 3 2 2 4 4 4 4 4 5 7 8 8
1 1 1 2 2 1 1 2 2 2 2 2 2 2 2 1 1 2 3 3 3 3 3 4 3 3 4 3 2 3 3 2 2 1 2 4 5 5 5 5 6 7 9
2 2 1 2 2 1 1 1 2 2 2 2 2 2 2 2 2 2 2 2 2 2 3 3 3 4 4 4 3 2 2 2 2 2 3 3 3 4 5 6 6 6 9
2 2 1 2 2 1 1 1 1 2 2 2 3 3 2 1 1 2 2 2 2 3 3 3 4 4 4 4 3 3 2 2 2 2 3 4 4 4 4 5 6 6 8
Wind_Direction
112 120 122 119 126 129 132 130 126 122 118 113 111 111 108 105 105 102 100 99 96 94 92 91 89 85 82 80 78 79 79 79 79 79 79 78 77 75 72 73 72 70 73
119 123 122 119 124 128 131 134 129 126 122 119 117 115 111 109 110 108 105 104 101 97 93 91 91 89 86 84 83 82 83 82 82 82 80 78 78 75 72 71 73 74 74
117 122 124 121 124 121 123 131 132 130 127 123 123 122 118 115 111 111 110 108 105 101 97 95 93 91 89 88 87 86 84 82 81 82 81 82 79 76 75 76 76 75 75
117 123 124 125 124 120 117 122 128 132 131 129 127 127 124 120 116 112 112 111 107 106 102 99 97 94 92 90 89 88 85 79 76 78 81 82 79 78 77 78 78 76 76
115 118 119 125 124 121 119 117 123 129 131 131 130 128 129 126 122 119 115 114 113 109 107 107 104 100 98 96 94 91 83 73 65 74 78 81 79 81 79 78 78 78 77
111 113 119 120 121 122 120 119 117 124 132 135 135 131 130 129 127 124 120 119 118 116 113 113 109 106 104 102 100 93 76 62 63 82 81 84 84 84 82 79 78 79 78
112 112 120 119 118 119 121 121 121 121 127 136 138 139 137 135 133 130 126 125 123 120 118 116 114 110 110 108 103 92 71 59 66 84 89 91 91 87 85 82 81 79 76
109 112 121 120 120 122 121 120 124 131 132 134 142 142 142 142 141 139 135 133 131 125 120 123 123 120 119 116 111 100 76 60 64 84 93 96 98 93 91 87 84 81 77
107 111 120 127 129 127 129 129 131 131 139 143 147 148 146 149 148 147 145 143 139 136 127 128 128 126 128 125 120 109 94 49 44 76 95 99 104 102 96 90 89 86 81
110 115 120 129 133 135 138 141 142 142 140 151 154 159 156 155 156 158 154 154 151 146 140 139 136 134 137 136 132 126 132 38 69 77 92 105 113 111 106 99 94 91 88
116 123 128 127 128 130 141 147 147 151 149 146 146 159 164 164 163 164 163 162 160 157 153 153 153 151 151 160 168 176 192 127 85 88 101 116 118 119 117 111 107 103 99
131 130 128 132 132 134 141 143 148 152 158 159 156 159 172 173 170 167 165 164 165 165 163 165 167 168 170 179 188 191 182 162 111 101 112 124 125 125 121 118 114 112 108
139 128 123 125 126 129 131 139 144 155 167 176 175 170 175 177 164 155 152 157 162 166 168 173 176 182 190 186 180 182 176 151 125 115 124 134 134 137 142 143 139 131 123
134 135 131 135 129 127 131 146 150 154 169 173 183 179 164 166 161 162 163 167 171 175 179 180 185 189 189 190 178 171 173 164 140 132 139 149 151 154 159 160 159 155 148
128 133 143 138 134 139 134 141 133 147 164 182 179 182 165 161 173 171 175 175 175 175 179 186 183 175 185 194 183 175 179 175 159 151 147 159 166 172 177 180 180 175 168
137 135 143 146 140 140 150 157 145 142 146 139 144 145 156 160 173 178 180 178 179 176 181 184 177 171 175 176 190 192 190 183 177 166 155 165 175 182 190 193 194 194 191
62 75 125 154 143 157 171 177 139 141 143 132 122 136 141 145 171 184 181 188 186 181 186 183 181 167 179 174 191 206 200 192 173 175 175 173 176 185 192 201 203 205 209
68 90 99 137 152 168 184 193 145 142 132 139 144 144 151 160 165 179 181 196 193 186 186 180 180 180 188 184 195 214 200 193 190 194 193 183 179 182 189 203 211 214 218
63 106 109 118 172 183 193 180 163 121 116 129 141 152 181 182 185 181 186 195 197 190 191 190 187 179 182 188 198 209 208 217 206 206 197 187 183 179 181 196 206 213 221
65 91 119 104 173 200 182 140 124 136 155 179 173 193 213 218 207 187 188 194 187 186 194 191 189 189 181 177 199 222 220 226 217 214 205 186 186 189 185 192 201 213 220
75 62 69 78 175 154 156 170 177 195 201 212 207 198 222 254 234 198 189 194 192 197 200 189 190 196 198 170 158 250 249 223 227 219 200 187 189 193 195 196 200 204 213
73 58 35 37 17 82 166 199 207 195 201 200 197 206 223 239 236 205 195 197 201 201 202 199 178 198 219 190 175 188 245 259 245 221 208 205 203 191 194 201 199 203 207
55 39 17 2 345 291 209 150 142 133 115 166 208 217 239 232 224 221 213 203 203 200 205 207 197 190 208 223 204 186 198 220 255 233 212 206 202 201 204 204 208 214 215
67 40 14 355 338 282 235 198 198 208 207 220 209 215 235 260 257 235 219 214 211 208 210 213 207 203 192 211 239 235 227 195 178 247 249 222 213 215 214 211 211 215 216
56 40 3 340 330 322 300 238 216 230 235 216 202 204 215 234 252 253 230 218 216 217 212 215 218 212 208 209 210 229 250 262 216 211 251 244 238 228 218 211 210 214 219
50 27 3 333 321 318 307 276 242 230 229 234 218 211 216 217 225 238 245 222 227 226 225 219 217 215 214 217 219 211 211 219 216 213 237 239 243 243 228 221 214 214 219
Height
1507 1508 1510 1512 1513 1515 1517 1518 1520 1521 1522 1523 1525 1526 1527 1528 1529 1529 1530 1531 1532 1533 1533 1534 1534 1535 1535 1536 1536 1537 1537 1538 1538 1539 1539 1539 1540 1540 1540 1541 1541 1541 1541
1507 1508 1510 1512 1514 1515 1517 1519 1520 1522 1523 1524 1525 1526 1528 1528 1529 1530 1531 1532 1533 1534 1535 1535 1536 1536 1537 1537 1538 1538 1539 1540 1540 1540 1541 1541 1541 1542 1542 1542 1542 1543 1543
1507 1508 1510 1512 1514 1516 1517 1519 1521 1522 1523 1525 1526 1527 1528 1529 1530 1531 1532 1533 1534 1535 1536 1536 1537 1537 1538 1538 1539 1540 1540 1541 1541 1542 1542 1542 1543 1543 1543 1544 1544 1544 1544
1507 1508 1510 1512 1514 1516 1517 1519 1521 1522 1524 1525 1526 1527 1529 1530 1531 1532 1533 1534 1535 1536 1536 1537 1538 1538 1539 1540 1540 1541 1542 1542 1543 1543 1543 1544 1544 1544 1545 1545 1545 1545 1546
1507 1508 1510 1512 1514 1516 1518 1519 1521 1522 1524 1525 1526 1528 1529 1530 1531 1532 1533 1534 1535 1536 1537 1538 1539 1539 1540 1541 1542 1542 1543 1544 1544 1545 1545 1545 1545 1545 1546 1546 1546 1546 1547
1507 1509 1510 1512 1514 1516 1518 1519 1521 1522 1524 1525 1527 1528 1529 1530 1531 1533 1534 1535 1536 1537 1538 1538 1539 1540 1541 1542 1543 1544 1544 1545 1545 1546 1546 1546 1546 1546 1546 1547 1547 1547 1548
1507 1508 1510 1512 1514 1516 1517 1519 1521 1522 1524 1525 1526 1528 1529 1530 1532 1533 1534 1535 1536 1537 1538 1539 1540 1541 1542 1543 1544 1544 1545 1546 1546 1546 1547 1547 1547 1547 1547 1547 1548 1548 1548
1507 1508 1510 1512 1514 1515 1517 1519 1520 1522 1523 1525 1526 1527 1529 1530 1531 1532 1534 1535 1536 1537 1538 1539 1540 1541 1542 1543 1544 1545 1546 1546 1547 1547 1547 1547 1547 1548 1548 1548 1548 1548 1549
1507 1508 1510 1511 1513 1515 1516 1518 1520 1521 1523 1524 1526 1527 1528 1529 1531 1532 1533 1534 1536 1537 1538 1539 1540 1541 1542 1543 1544 1545 1546 1547 1547 1547 1547 1547 1548 1548 1548 1548 1548 1549 1549
1507 1508 1509 1511 1512 1514 1516 1517 1519 1521 1522 1524 1525 1526 1528 1529 1530 1531 1532 1534 1535 1536 1537 1538 1539 1541 1542 1543 1544 1545 1546 1546 1547 1547 1547 1548 1548 1548 1548 1548 1548 1549 1549
1506 1507 1508 1510 1512 1513 1515 1516 1518 1519 1521 1522 1524 1525 1527 1528 1529 1530 1531 1533 1534 1535 1536 1538 1539 1540 1541 1542 1544 1545 1545 1546 1546 1547 1547 1547 1548 1548 1548 1548 1548 1548 1549
1505 1506 1507 1509 1510 1512 1513 1515 1516 1518 1519 1521 1522 1524 1525 1526 1528 1529 1530 1531 1533 1534 1535 1536 1538 1539 1540 1541 1543 1544 1544 1545 1545 1546 1546 1547 1547 1547 1547 1548 1548 1548 1548
1504 1505 1506 1508 1509 1511 1512 1513 1515 1516 1518 1519 1521 1522 1524 1525 1526 1527 1528 1530 1531 1533 1534 1535 1536 1537 1539 1540 1541 1542 1543 1544 1544 1545 1545 1546 1546 1546 1547 1547 1547 1547 1547
1503 1504 1505 1506 1508 1509 1510 1511 1513 1514 1516 1517 1519 1520 1521 1523 1524 1525 1526 1527 1529 1530 1532 1533 1534 1535 1537 1539 1540 1541 1542 1542 1543 1543 1544 1544 1545 1545 1545 1546 1546 1546 1546
1501 1502 1503 1504 1506 1507 1508 1509 1511 1512 1513 1515 1516 1518 1519 1520 1521 1523 1524 1525 1526 1528 1529 1531 1532 1533 1535 1537 1538 1539 1540 1541 1541 1542 1542 1542 1543 1544 1544 1544 1544 1545 1545
1499 1500 1501 1502 1503 1505 1506 1507 1508 1509 1511 1512 1513 1515 1516 1517 1518 1520 1521 1522 1524 1525 1527 1528 1530 1531 1533 1534 1536 1537 1538 1539 1539 1540 1540 1540 1541 1541 1542 1542 1543 1543 1543
1496 1497 1498 1499 1501 1502 1503 1504 1505 1507 1508 1509 1510 1512 1513 1514 1515 1517 1518 1519 1521 1522 1524 1525 1527 1528 1530 1531 1533 1534 1535 1536 1537 1537 1538 1538 1538 1539 1539 1540 1540 1541 1541
1494 1494 1495 1496 1498 1499 1500 1501 1502 1504 1505 1506 1507 1509 1510 1511 1512 1513 1514 1516 1518 1519 1520 1522 1524 1525 1526 1528 1529 1530 1532 1533 1533 1534 1535 1535 1536 1536 1537 1537 1538 1538 1538
1491 1492 1492 1493 1494 1496 1497 1498 1499 1500 1502 1503 1504 1505 1507 1508 1509 1510 1511 1512 1514 1516 1517 1518 1520 1522 1523 1524 1526 1527 1528 1529 1530 1531 1532 1532 1532 1533 1533 1534 1535 1535 1536
1488 1489 1490 1491 1491 1492 1493 1495 1496 1497 1498 1500 1501 1502 1503 1505 1506 1506 1507 1509 1510 1512 1514 1515 1516 1518 1519 1521 1523 1524 1525 1525 1526 1527 1528 1529 1529 1530 1530 1531 1532 1532 1533
1486 1486 1487 1488 1488 1489 1489 1490 1492 1493 1495 1496 1497 1498 1500 1501 1502 1503 1504 1505 1506 1508 1510 1511 1512 1514 1516 1518 1519 1520 1521 1522 1522 1523 1524 1525 1526 1526 1527 1527 1528 1529 1529
1483 1483 1484 1484 1485 1486 1486 1487 1489 1490 1491 1492 1494 1495 1496 1497 1498 1498 1500 1501 1503 1504 1506 1507 1508 1510 1512 1514 1515 1516 1517 1518 1518 1519 1520 1521 1521 1522 1523 1524 1524 1525 1526
1480 1481 1481 1481 1482 1483 1483 1484 1485 1486 1487 1488 1489 1491 1492 1493 1494 1495 1496 1497 1499 1500 1501 1503 1504 1506 1507 1510 1511 1513 1514 1513 1514 1514 1515 1516 1517 1518 1519 1520 1520 1521 1521
1478 1478 1478 1479 1479 1479 1480 1481 1482 1483 1483 1484 1486 1487 1488 1489 1490 1491 1492 1493 1494 1496 1497 1498 1500 1501 1503 1504 1507 1508 1510 1510 1511 1509 1511 1512 1513 1513 1514 1515 1516 1516 1517
1475 1475 1476 1476 1476 1476 1477 1478 1479 1479 1480 1482 1482 1483 1484 1485 1486 1487 1488 1489 1490 1491 1493 1494 1495 1497 1498 1500 1501 1503 1504 1505 1506 1506 1506 1506 1508 1509 1509 1510 1511 1511 1512
1473 1473 1473 1473 1473 1473 1474 1474 1475 1476 1477 1478 1478 1479 1480 1481 1482 1483 1484 1485 1486 1487 1488 1489 1491 1492 1494 1495 1497 1498 1499 1500 1500 1501 1501 1501 1502 1503 1504 1505 1505 1506 1506